Regional Weather Roundup
Issued by NWS

Home | Current Version | Previous Version | Text Only | Print | Product List | Glossary On
Versions: 1 2 3 4 5 6 7 8 9 10 11 12 13 14 15 16 17 18 19 20 21 22 23 24 25 26 27 28 29
000
ASUS45 KBOI 301110
RWRID

IDAHO REGIONAL WEATHER ROUNDUP
NATIONAL WEATHER SERVICE BOISE ID
500 AM MDT SAT APR 30 2016

NOTE: "FAIR" INDICATES FEW OR NO CLOUDS BELOW 12000 FEET
WITH NO SIGNIFICANT WEATHER AND/OR OBSTRUCTIONS TO VISIBILITY

IDZ012-014-301200-
SOUTHWEST IDAHO


CITY           SKY/WX    TMP DP  RH WIND       PRES   REMARKS
BOISE          CLEAR     44  36  73 NW14      29.99R
CALDWELL       CLEAR     44  39  82 W12       30.04R
MOUNTAIN HOME  CLEAR     42  37  84 NW17      29.97R
$$

IDZ016-017-301200-
SOUTHCENTRAL IDAHO


CITY           SKY/WX    TMP DP  RH WIND       PRES   REMARKS
BURLEY         CLOUDY    42  37  82 W12       29.95R
JEROME         CLOUDY    39  36  89 SW10      29.97R WCI  32
TWIN FALLS     CLOUDY    40  36  86 SW12      29.98R WCI  33
$$

IDZ019>023-301200-
SOUTHEAST IDAHO


CITY           SKY/WX    TMP DP  RH WIND       PRES   REMARKS
IDAHO FALLS    CLEAR     33  31  92 N6        29.95R WCI  28
POCATELLO      CLEAR     33  32  96 SW5       29.95R WCI  29
REXBURG        CLOUDY    36  34  92 CALM      29.94R
$$

IDZ006-010-011-018-031-032-301200-
CENTRAL IDAHO MOUNTAINS


CITY           SKY/WX    TMP DP  RH WIND       PRES   REMARKS
MCCALL         CLEAR     34  30  85 CALM      30.03R
HAILEY         CLEAR     34  32  93 NW8       29.98R WCI  27
STANLEY          N/A     30  27  88 CALM      30.02R
SALMON         CLOUDY    37  34  87 CALM      30.03R
CHALLIS        CLOUDY    39  27  62 NW7       30.01R WCI  34
$$

IDZ002-004-006-007-026-301200-
NORTHERN IDAHO


CITY           SKY/WX    TMP DP  RH WIND       PRES   REMARKS
LEWISTON       CLOUDY    50  48  93 CALM      30.12R
LOWELL           N/A     46  44  93 CALM      30.14R
COEUR D`ALENE  CLOUDY    46  43  87 NE6       30.09S
MULLAN PASS    MOCLDY    31  30  96 CALM      30.08R
$$




USA.gov is the U.S. government's official web portal to all federal, state and local government web resources and services.